Volver al catálogo

STARLINK-31826

ActivoComunicacionesVLEO
NORAD 59768·PAYLOAD·🇺🇸 United States

Lanzado May 14, 2024 desde Vandenberg Space Force Base

Loading…

Próximos Pases (próximas 24 horas)

TLE

ActualizadoSource: CelesTrak SupGP

Época: Sep 15, 2026, 02:47 UTC

1 59768C 24091R   26258.11645833  .00048610  00000+0  44136-3 0  2582
2 59768  53.1434 204.9015 0010609  61.8793 319.7323 15.67236759    18

Sigue STARLINK-31826 en tiempo real con AllMySat

Download on the App Store